When you browse on this site, cookies collect data to enhance your experience and personalize the content and advertising you see.
Visit our Privacy Policy to learn more. By continuing to use the site, you agree to this use of cookies and data.
  • In Lithuania
  • List of Countries
  • For 7 days
  • Water Temperature
  • Satellite Maps
  • Weather Map
  • Weather Widgets
  • user-avatar
    Login

    Hourly Weather Leninka

    Today, 20 May, Monday

    Time Temperature Precipitation Wind Pressure Humidity
    00:00 +12°C° 0 mm 2 mps 744 mmHg 77%
    01:00 +12°C° 0 mm 2 mps 744 mmHg 76%
    02:00 +10°C° 0 mm 2 mps 744 mmHg 75%
    03:00 +10°C° 0 mm 1 mps 745 mmHg 75%
    04:00 +11°C° 0 mm 1 mps 745 mmHg 74%
    05:00 +11°C° 0 mm 1 mps 745 mmHg 74%
    06:00 +11°C° 0 mm 1 mps 745 mmHg 74%
    07:00 +13°C° 0 mm 1 mps 746 mmHg 68%
    08:00 +14°C° 0 mm 1 mps 746 mmHg 63%
    09:00 +16°C° 0 mm 1 mps 746 mmHg 57%
    10:00 +18°C° 0 mm 1 mps 746 mmHg 55%
    11:00 +19°C° 0 mm 1 mps 746 mmHg 53%
    12:00 +19°C° 0 mm 2 mps 746 mmHg 52%
    13:00 +19°C° 0 mm 2 mps 746 mmHg 51%
    14:00 +20°C° 0 mm 2 mps 746 mmHg 50%
    15:00 +21°C° 0 mm 2 mps 746 mmHg 50%
    16:00 +20°C° 0 mm 2 mps 745 mmHg 53%
    17:00 +20°C° 0 mm 2 mps 745 mmHg 56%
    18:00 +21°C° 0 mm 1 mps 745 mmHg 59%
    19:00 +18°C° 0 mm 2 mps 745 mmHg 64%
    20:00 +17°C° 0 mm 2 mps 745 mmHg 69%
    21:00 +15°C° 0 mm 2 mps 745 mmHg 75%
    22:00 +14°C° 0 mm 2 mps 745 mmHg 76%
    23:00 +14°C° 0 mm 2 mps 745 mmHg 77%

    Tomorrow, 21 May, Tuesday

    Time Temperature Precipitation Wind Pressure Humidity
    00:00 +13°C° 0 mm 2 mps 746 mmHg 79%
    01:00 +13°C° 0 mm 2 mps 746 mmHg 80%
    02:00 +12°C° 0 mm 2 mps 746 mmHg 82%
    03:00 +12°C° 0 mm 2 mps 746 mmHg 83%
    04:00 +12°C° 0 mm 2 mps 746 mmHg 84%
    05:00 +12°C° 0 mm 2 mps 746 mmHg 85%
    06:00 +13°C° 0 mm 2 mps 746 mmHg 85%
    07:00 +14°C° 0 mm 2 mps 746 mmHg 80%
    08:00 +16°C° 0 mm 2 mps 746 mmHg 75%
    09:00 +18°C° 0 mm 2 mps 746 mmHg 69%
    10:00 +19°C° 0 mm 2 mps 746 mmHg 65%
    11:00 +20°C° 0 mm 2 mps 746 mmHg 61%
    12:00 +21°C° 0 mm 2 mps 746 mmHg 57%
    13:00 +21°C° 0 mm 3 mps 746 mmHg 56%
    14:00 +21°C° 0 mm 3 mps 745 mmHg 54%
    15:00 +22°C° 0 mm 4 mps 745 mmHg 53%
    16:00 +21°C° 0 mm 3 mps 744 mmHg 56%
    17:00 +21°C° 0 mm 3 mps 744 mmHg 60%
    18:00 +20°C° 0 mm 3 mps 744 mmHg 64%
    19:00 +19°C° 0 mm 3 mps 743 mmHg 67%
    20:00 +17°C° 0 mm 3 mps 743 mmHg 70%
    21:00 +14°C° 0 mm 3 mps 743 mmHg 73%
    22:00 +13°C° 0 mm 3 mps 743 mmHg 75%
    23:00 +13°C° 0 mm 3 mps 743 mmHg 76%

    Day after tomorrow, 22 May, Wednesday

    Time Temperature Precipitation Wind Pressure Humidity
    00:00 +12°C° 0 mm 3 mps 743 mmHg 77%
    01:00 +12°C° 0 mm 3 mps 743 mmHg 81%
    02:00 +12°C° 0 mm 3 mps 743 mmHg 84%
    03:00 +11°C° 0 mm 3 mps 742 mmHg 87%
    04:00 +12°C° 0 mm 3 mps 742 mmHg 86%
    05:00 +12°C° 0 mm 3 mps 742 mmHg 86%
    06:00 +12°C° 0 mm 3 mps 742 mmHg 85%
    07:00 +14°C° 0 mm 3 mps 741 mmHg 81%
    08:00 +17°C° 0 mm 3 mps 741 mmHg 76%
    09:00 +19°C° 0 mm 3 mps 741 mmHg 71%
    10:00 +20°C° 0 mm 3 mps 741 mmHg 67%
    11:00 +21°C° 0 mm 4 mps 741 mmHg 62%
    12:00 +22°C° 0 mm 4 mps 740 mmHg 57%
    13:00 +22°C° 0 mm 4 mps 740 mmHg 57%
    14:00 +22°C° 0 mm 5 mps 740 mmHg 57%
    15:00 +22°C° 0 mm 5 mps 739 mmHg 56%
    16:00 +22°C° 0 mm 4 mps 739 mmHg 60%
    17:00 +22°C° 0 mm 4 mps 739 mmHg 63%
    18:00 +21°C° 0 mm 4 mps 738 mmHg 66%
    19:00 +20°C° 0 mm 3 mps 738 mmHg 71%
    20:00 +18°C° 0 mm 3 mps 738 mmHg 75%
    21:00 +17°C° 0 mm 3 mps 738 mmHg 80%
    22:00 +16°C° 0 mm 3 mps 738 mmHg 81%
    23:00 +16°C° 0 mm 3 mps 737 mmHg 82%

    23 May, Thursday

    Time Temperature Precipitation Wind Pressure Humidity
    00:00 +14°C° 0 mm 3 mps 737 mmHg 82%
    01:00 +14°C° 0 mm 3 mps 737 mmHg 84%
    02:00 +13°C° 0 mm 3 mps 737 mmHg 86%
    03:00 +13°C° 0 mm 3 mps 736 mmHg 88%
    04:00 +13°C° 0 mm 3 mps 736 mmHg 88%
    05:00 +14°C° 0 mm 3 mps 736 mmHg 87%
    06:00 +14°C° 0 mm 3 mps 736 mmHg 87%
    07:00 +17°C° 0 mm 3 mps 736 mmHg 84%
    08:00 +18°C° 0 mm 3 mps 736 mmHg 80%
    09:00 +20°C° 0 mm 4 mps 736 mmHg 77%
    10:00 +21°C° 0.6 mm 4 mps 736 mmHg 74%
    11:00 +22°C° 0.6 mm 4 mps 735 mmHg 71%
    12:00 +23°C° 0.6 mm 4 mps 735 mmHg 68%
    13:00 +23°C° 0.9 mm 4 mps 735 mmHg 67%
    14:00 +23°C° 0.9 mm 4 mps 735 mmHg 67%
    15:00 +25°C° 0.9 mm 4 mps 735 mmHg 66%
    16:00 +23°C° 0.6 mm 4 mps 735 mmHg 69%
    17:00 +23°C° 0.6 mm 4 mps 735 mmHg 72%
    18:00 +24°C° 0.6 mm 3 mps 735 mmHg 74%
    19:00 +21°C° 0.1 mm 3 mps 734 mmHg 79%
    20:00 +20°C° 0.1 mm 2 mps 734 mmHg 83%
    21:00 +18°C° 0.1 mm 2 mps 734 mmHg 88%
    22:00 +18°C° 0 mm 2 mps 735 mmHg 90%
    23:00 +17°C° 0 mm 2 mps 735 mmHg 91%

    24 May, Friday

    Time Temperature Precipitation Wind Pressure Humidity
    00:00 +18°C° 0 mm 1 mps 735 mmHg 92%
    01:00 +16°C° 0 mm 1 mps 735 mmHg 93%
    02:00 +16°C° 0 mm 2 mps 735 mmHg 94%
    03:00 +15°C° 0 mm 2 mps 735 mmHg 94%
    04:00 +16°C° 0 mm 2 mps 735 mmHg 94%
    05:00 +16°C° 0 mm 2 mps 735 mmHg 95%
    06:00 +16°C° 0 mm 3 mps 735 mmHg 95%
    07:00 +16°C° 0 mm 3 mps 735 mmHg 93%
    08:00 +17°C° 0 mm 3 mps 736 mmHg 92%
    09:00 +17°C° 0 mm 3 mps 736 mmHg 90%
    10:00 +18°C° 0 mm 3 mps 736 mmHg 88%
    11:00 +18°C° 0 mm 4 mps 736 mmHg 86%
    12:00 +18°C° 0 mm 4 mps 736 mmHg 83%
    13:00 +19°C° 0 mm 4 mps 736 mmHg 83%
    14:00 +19°C° 0 mm 4 mps 735 mmHg 82%
    15:00 +19°C° 0 mm 4 mps 735 mmHg 81%
    16:00 +19°C° 0 mm 4 mps 735 mmHg 82%
    17:00 +19°C° 0 mm 4 mps 735 mmHg 82%
    18:00 +18°C° 0 mm 4 mps 735 mmHg 82%
    19:00 +18°C° 0.1 mm 4 mps 735 mmHg 85%
    20:00 +17°C° 0.1 mm 4 mps 735 mmHg 88%
    21:00 +15°C° 0.1 mm 4 mps 735 mmHg 90%
    22:00 +15°C° 0 mm 4 mps 735 mmHg 92%
    23:00 +15°C° 0 mm 4 mps 735 mmHg 94%

    25 May, Saturday

    Time Temperature Precipitation Wind Pressure Humidity
    00:00 +14°C° 0 mm 5 mps 735 mmHg 96%
    01:00 +14°C° 0 mm 5 mps 735 mmHg 96%
    02:00 +14°C° 0 mm 5 mps 735 mmHg 96%
    03:00 +14°C° 0 mm 5 mps 735 mmHg 95%
    04:00 +14°C° 0 mm 5 mps 735 mmHg 95%
    05:00 +14°C° 0 mm 4 mps 735 mmHg 95%
    06:00 +14°C° 0 mm 4 mps 735 mmHg 95%
    07:00 +15°C° 0 mm 4 mps 735 mmHg 93%
    08:00 +17°C° 0 mm 4 mps 735 mmHg 92%
    09:00 +17°C° 0 mm 4 mps 735 mmHg 90%
    10:00 +19°C° 0.3 mm 4 mps 735 mmHg 85%
    11:00 +20°C° 0.3 mm 4 mps 735 mmHg 79%
    12:00 +22°C° 0.3 mm 4 mps 735 mmHg 74%
    13:00 +22°C° 1.1 mm 4 mps 735 mmHg 72%
    14:00 +23°C° 1.1 mm 4 mps 734 mmHg 69%
    15:00 +23°C° 1.1 mm 4 mps 734 mmHg 67%
    16:00 +24°C° 1.3 mm 3 mps 734 mmHg 70%
    17:00 +24°C° 1.3 mm 3 mps 734 mmHg 74%
    18:00 +24°C° 1.3 mm 3 mps 733 mmHg 77%
    19:00 +21°C° 1.6 mm 3 mps 733 mmHg 80%
    20:00 +19°C° 1.6 mm 3 mps 733 mmHg 82%
    21:00 +18°C° 1.6 mm 4 mps 733 mmHg 85%
    22:00 +17°C° 0 mm 3 mps 733 mmHg 87%
    23:00 +17°C° 0 mm 3 mps 732 mmHg 89%
    Show more